AAL2340 KMCO-KCLT

Flight info

Callsign AAL2340
Flight time N/A
Altitude 35000
Route FATHE4 VIYAP CHECR STOCR4
Aircraft A321/M-SDE3FGHIRWY/LB1

Departure

Time 2026-04-26 15:42
Airport Orlando International Airport (KMCO)

Arrival

Time N/A
Airport Charlotte Douglas International Airport (KCLT)
Time Latitude Longitude Altitude Speed Heading
2026-04-26 15:14 28.42844 -81.31461 84 ft 0 kts 228°
2026-04-26 15:30 28.42854 -81.31448 84 ft 2 kts 229°
2026-04-26 15:30 28.42864 -81.31435 84 ft 2 kts 227°
2026-04-26 15:30 28.42874 -81.31422 85 ft 2 kts 228°
2026-04-26 15:31 28.42884 -81.31410 85 ft 1 kts 228°
2026-04-26 15:31 28.42886 -81.31430 85 ft 2 kts 315°
2026-04-26 15:31 28.42910 -81.31454 85 ft 5 kts 308°
2026-04-26 15:32 28.42923 -81.31475 85 ft 0 kts 302°
2026-04-26 15:32 28.42923 -81.31476 85 ft 0 kts 302°
2026-04-26 15:34 28.42934 -81.31496 86 ft 4 kts 302°
2026-04-26 15:34 28.42951 -81.31532 86 ft 7 kts 288°
2026-04-26 15:34 28.42946 -81.31618 87 ft 11 kts 256°
2026-04-26 15:35 28.42938 -81.31709 88 ft 11 kts 277°
2026-04-26 15:35 28.42973 -81.31792 87 ft 11 kts 304°
2026-04-26 15:35 28.43015 -81.31835 88 ft 7 kts 350°
2026-04-26 15:35 28.43107 -81.31839 88 ft 16 kts 360°
2026-04-26 15:36 28.43240 -81.31841 88 ft 24 kts 359°
2026-04-26 15:36 28.43441 -81.31843 90 ft 28 kts 360°
2026-04-26 15:36 28.43632 -81.31844 91 ft 26 kts 359°
2026-04-26 15:36 28.43816 -81.31847 91 ft 25 kts
2026-04-26 15:37 28.43933 -81.31853 91 ft 12 kts 343°
2026-04-26 15:37 28.44033 -81.31889 91 ft 18 kts 346°
2026-04-26 15:37 28.44162 -81.31901 91 ft 18 kts 359°
2026-04-26 15:37 28.44288 -81.31902 92 ft 17 kts
2026-04-26 15:38 28.44440 -81.31903 92 ft 26 kts 360°
2026-04-26 15:38 28.44635 -81.31905 91 ft 27 kts 359°
2026-04-26 15:38 28.44787 -81.31908 91 ft 8 kts 354°
2026-04-26 15:38 28.44826 -81.31973 91 ft 13 kts 273°
2026-04-26 15:39 28.44825 -81.32109 91 ft 12 kts 269°
2026-04-26 15:39 28.44824 -81.32202 91 ft 4 kts 270°
2026-04-26 15:39 28.44814 -81.32230 91 ft 4 kts 207°
2026-04-26 15:39 28.44792 -81.32230 91 ft 5 kts 177°
2026-04-26 15:40 28.44789 -81.32230 91 ft 0 kts 178°
2026-04-26 15:40 28.44769 -81.32230 91 ft 10 kts 176°
2026-04-26 15:40 28.44750 -81.32229 91 ft 6 kts 180°
2026-04-26 15:40 28.44518 -81.32227 91 ft 68 kts 179°
2026-04-26 15:41 28.43819 -81.32220 91 ft 132 kts 180°
2026-04-26 15:41 28.42706 -81.32204 141 ft 178 kts 180°
2026-04-26 15:41 28.41871 -81.32185 426 ft 185 kts 181°
2026-04-26 15:42 28.38759 -81.32481 2093 ft 179 kts 208°
2026-04-26 15:42 28.37639 -81.33189 2447 ft 192 kts 213°
2026-04-26 15:42 28.36473 -81.34036 2771 ft 207 kts 222°
2026-04-26 15:42 28.35752 -81.35480 3039 ft 222 kts 264°
2026-04-26 15:43 28.36095 -81.37209 3349 ft 241 kts 303°
2026-04-26 15:43 28.37456 -81.38399 3807 ft 260 kts 340°
2026-04-26 15:43 28.41115 -81.38005 5176 ft 274 kts 12°
2026-04-26 15:44 28.42990 -81.37466 5927 ft 277 kts 11°
2026-04-26 15:44 28.46755 -81.36520 7411 ft 280 kts
2026-04-26 15:44 28.48661 -81.36095 8130 ft 282 kts
2026-04-26 15:45 28.52563 -81.35269 9530 ft 287 kts
2026-04-26 15:45 28.54537 -81.34862 10189 ft 289 kts
2026-04-26 15:46 28.58676 -81.34024 10880 ft 318 kts
2026-04-26 15:46 28.60895 -81.33572 11213 ft 331 kts
2026-04-26 15:46 28.63204 -81.33102 11795 ft 335 kts
2026-04-26 15:46 28.64718 -81.32793 12202 ft 337 kts
2026-04-26 15:47 28.67825 -81.32158 12973 ft 342 kts
2026-04-26 15:47 28.72533 -81.31197 14159 ft 347 kts
2026-04-26 15:47 28.74942 -81.30707 14754 ft 350 kts
2026-04-26 15:48 28.77332 -81.30217 15314 ft 352 kts
2026-04-26 15:48 28.79745 -81.29725 15761 ft 355 kts
2026-04-26 15:48 28.82195 -81.29266 15949 ft 356 kts
2026-04-26 15:48 28.84671 -81.29040 15956 ft 353 kts 359°
2026-04-26 15:49 28.87120 -81.29093 15991 ft 354 kts 354°
2026-04-26 15:49 28.89618 -81.29295 16384 ft 359 kts 353°
2026-04-26 15:49 28.92096 -81.29515 17018 ft 358 kts 353°
2026-04-26 15:49 28.94585 -81.29734 17593 ft 360 kts 353°
2026-04-26 15:50 28.97093 -81.29952 18117 ft 362 kts 353°
2026-04-26 15:50 28.99601 -81.30172 18642 ft 365 kts 352°
2026-04-26 15:50 29.02136 -81.30444 19164 ft 367 kts 352°
2026-04-26 15:50 29.04675 -81.30737 19638 ft 370 kts 352°
2026-04-26 15:51 29.07262 -81.31031 20122 ft 372 kts 352°
2026-04-26 15:51 29.09822 -81.31317 20630 ft 374 kts 352°
2026-04-26 15:51 29.12450 -81.31527 21107 ft 377 kts 354°
2026-04-26 15:51 29.15074 -81.31688 21566 ft 379 kts 354°
2026-04-26 15:52 29.17726 -81.31845 22024 ft 382 kts 355°
2026-04-26 15:52 29.20367 -81.32001 22454 ft 384 kts 355°
2026-04-26 15:52 29.23059 -81.32161 22894 ft 386 kts 355°
2026-04-26 15:52 29.24861 -81.32268 23184 ft 388 kts 354°
2026-04-26 15:53 29.28457 -81.32481 23749 ft 391 kts 354°
2026-04-26 15:53 29.31194 -81.32644 24207 ft 392 kts 354°
2026-04-26 15:53 29.33909 -81.32808 24653 ft 393 kts 354°
2026-04-26 15:53 29.36656 -81.32973 25072 ft 394 kts 354°
2026-04-26 15:54 29.39396 -81.33137 25470 ft 396 kts 354°
2026-04-26 15:54 29.42156 -81.33304 25887 ft 396 kts 354°
2026-04-26 15:54 29.44898 -81.33469 26262 ft 398 kts 354°
2026-04-26 15:54 29.47693 -81.33639 26593 ft 400 kts 354°
2026-04-26 15:55 29.50456 -81.33805 26936 ft 402 kts 354°
2026-04-26 15:55 29.53261 -81.33974 27271 ft 404 kts 354°
2026-04-26 15:55 29.56067 -81.34141 27645 ft 404 kts 353°
2026-04-26 15:55 29.57006 -81.34197 27771 ft 404 kts 353°
2026-04-26 15:56 29.64217 -81.34634 28669 ft 406 kts 353°
2026-04-26 15:56 29.67068 -81.34801 28960 ft 408 kts 353°
2026-04-26 15:56 29.69954 -81.34968 29266 ft 409 kts 353°
2026-04-26 15:57 29.72801 -81.35131 29557 ft 410 kts 353°
2026-04-26 15:57 29.75666 -81.35292 29844 ft 411 kts 353°
2026-04-26 15:57 29.78553 -81.35459 30116 ft 412 kts 353°
2026-04-26 15:57 29.80473 -81.35568 30291 ft 413 kts 353°
2026-04-26 15:58 29.84333 -81.35789 30645 ft 414 kts 353°
2026-04-26 15:58 29.87205 -81.35956 30984 ft 413 kts 352°
2026-04-26 15:58 29.89119 -81.36065 31215 ft 412 kts 352°